• In Romania
  • List of Countries
  • For 7 days
  • Water Temperature
  • Satellite Maps
  • Weather Map
  • Weather Widgets
  • user-avatar
    Login

    Hourly Weather Kalgoorlie

    Today, 23 August, Wednesday

    Time Temperature Precipitation Wind Pressure Humidity
    00:00 +13°C° 0 mm 5 mps 734 mmHg 59%
    01:00 +12°C° 0 mm 5 mps 734 mmHg 63%
    02:00 +12°C° 0 mm 5 mps 734 mmHg 68%
    03:00 +10°C° 0 mm 5 mps 735 mmHg 71%
    04:00 +10°C° 0 mm 5 mps 735 mmHg 75%
    05:00 +9°C° 0 mm 5 mps 735 mmHg 78%
    06:00 +10°C° 0 mm 6 mps 735 mmHg 76%
    07:00 +10°C° 0 mm 6 mps 736 mmHg 74%
    08:00 +11°C° 0 mm 7 mps 736 mmHg 71%
    09:00 +14°C° 0 mm 7 mps 736 mmHg 63%
    10:00 +15°C° 0 mm 7 mps 736 mmHg 55%
    11:00 +17°C° 0 mm 7 mps 736 mmHg 47%
    12:00 +19°C° 0 mm 6 mps 736 mmHg 44%
    13:00 +20°C° 0 mm 6 mps 735 mmHg 40%
    14:00 +21°C° 0 mm 4 mps 735 mmHg 36%
    15:00 +21°C° 0 mm 4 mps 735 mmHg 37%
    16:00 +21°C° 0 mm 4 mps 735 mmHg 38%
    17:00 +20°C° 0 mm 4 mps 735 mmHg 39%
    18:00 +19°C° 0 mm 5 mps 736 mmHg 42%
    19:00 +17°C° 0 mm 5 mps 736 mmHg 45%
    20:00 +17°C° 0 mm 6 mps 736 mmHg 48%
    21:00 +16°C° 0 mm 6 mps 736 mmHg 53%
    22:00 +15°C° 0 mm 7 mps 737 mmHg 59%
    23:00 +13°C° 0 mm 8 mps 737 mmHg 64%

    Tomorrow, 24 August, Thursday

    Time Temperature Precipitation Wind Pressure Humidity
    00:00 +13°C° 0 mm 8 mps 737 mmHg 66%
    01:00 +12°C° 0 mm 8 mps 737 mmHg 67%
    02:00 +12°C° 0 mm 8 mps 737 mmHg 69%
    03:00 +12°C° 0 mm 8 mps 737 mmHg 70%
    04:00 +11°C° 0 mm 7 mps 737 mmHg 70%
    05:00 +11°C° 0 mm 7 mps 737 mmHg 71%
    06:00 +11°C° 0 mm 8 mps 737 mmHg 70%
    07:00 +11°C° 0 mm 8 mps 737 mmHg 69%
    08:00 +11°C° 0 mm 8 mps 737 mmHg 68%
    09:00 +12°C° 0 mm 8 mps 737 mmHg 64%
    10:00 +13°C° 0 mm 8 mps 738 mmHg 59%
    11:00 +15°C° 0 mm 8 mps 738 mmHg 55%
    12:00 +16°C° 0 mm 8 mps 737 mmHg 54%
    13:00 +16°C° 0 mm 8 mps 736 mmHg 53%
    14:00 +16°C° 0 mm 7 mps 736 mmHg 52%
    15:00 +16°C° 0 mm 7 mps 736 mmHg 55%
    16:00 +15°C° 0 mm 7 mps 736 mmHg 59%
    17:00 +15°C° 0 mm 7 mps 736 mmHg 62%
    18:00 +14°C° 1 mm 7 mps 736 mmHg 68%
    19:00 +12°C° 1 mm 7 mps 736 mmHg 73%
    20:00 +11°C° 1 mm 7 mps 736 mmHg 79%
    21:00 +11°C° 0.9 mm 7 mps 736 mmHg 81%
    22:00 +11°C° 0.9 mm 7 mps 736 mmHg 82%
    23:00 +11°C° 0.9 mm 7 mps 735 mmHg 84%

    Day after tomorrow, 25 August, Friday

    Time Temperature Precipitation Wind Pressure Humidity
    00:00 +11°C° 2 mm 6 mps 735 mmHg 85%
    01:00 +11°C° 2 mm 6 mps 735 mmHg 87%
    02:00 +12°C° 2 mm 5 mps 735 mmHg 88%
    03:00 +12°C° 1.4 mm 5 mps 735 mmHg 89%
    04:00 +12°C° 1.4 mm 5 mps 734 mmHg 90%
    05:00 +12°C° 1.4 mm 5 mps 734 mmHg 90%
    06:00 +12°C° 1.5 mm 5 mps 734 mmHg 90%
    07:00 +12°C° 1.5 mm 5 mps 735 mmHg 90%
    08:00 +12°C° 1.5 mm 5 mps 735 mmHg 90%
    09:00 +11°C° 0.2 mm 6 mps 735 mmHg 86%
    10:00 +12°C° 0.2 mm 7 mps 735 mmHg 82%
    11:00 +13°C° 0.2 mm 8 mps 735 mmHg 78%
    12:00 +14°C° 0.1 mm 7 mps 734 mmHg 77%
    13:00 +14°C° 0.1 mm 6 mps 733 mmHg 77%
    14:00 +14°C° 0.1 mm 5 mps 732 mmHg 76%
    15:00 +14°C° 0.2 mm 5 mps 733 mmHg 78%
    16:00 +13°C° 0.2 mm 5 mps 733 mmHg 80%
    17:00 +13°C° 0.2 mm 5 mps 733 mmHg 83%
    18:00 +13°C° 0.1 mm 5 mps 733 mmHg 84%
    19:00 +13°C° 0.1 mm 5 mps 734 mmHg 85%
    20:00 +12°C° 0.1 mm 5 mps 734 mmHg 86%
    21:00 +12°C° 0 mm 5 mps 734 mmHg 86%
    22:00 +12°C° 0 mm 5 mps 734 mmHg 87%
    23:00 +12°C° 0 mm 5 mps 734 mmHg 88%

    26 August, Saturday

    Time Temperature Precipitation Wind Pressure Humidity
    00:00 +10°C° 0 mm 5 mps 734 mmHg 89%
    01:00 +10°C° 0 mm 5 mps 734 mmHg 90%
    02:00 +10°C° 0 mm 5 mps 734 mmHg 92%
    03:00 +9°C° 0 mm 5 mps 734 mmHg 92%
    04:00 +9°C° 0 mm 5 mps 734 mmHg 92%
    05:00 +9°C° 0 mm 5 mps 734 mmHg 92%
    06:00 +9°C° 0 mm 5 mps 735 mmHg 90%
    07:00 +10°C° 0 mm 5 mps 735 mmHg 87%
    08:00 +10°C° 0 mm 6 mps 736 mmHg 84%
    09:00 +13°C° 0 mm 6 mps 736 mmHg 77%
    10:00 +14°C° 0 mm 6 mps 736 mmHg 70%
    11:00 +16°C° 0 mm 6 mps 736 mmHg 62%
    12:00 +16°C° 0 mm 6 mps 735 mmHg 60%
    13:00 +17°C° 0 mm 6 mps 735 mmHg 58%
    14:00 +17°C° 0 mm 5 mps 735 mmHg 55%
    15:00 +17°C° 0 mm 5 mps 735 mmHg 57%
    16:00 +17°C° 0 mm 5 mps 735 mmHg 58%
    17:00 +16°C° 0 mm 5 mps 735 mmHg 59%
    18:00 +16°C° 0 mm 5 mps 736 mmHg 61%
    19:00 +15°C° 0 mm 5 mps 736 mmHg 62%
    20:00 +15°C° 0 mm 6 mps 737 mmHg 63%
    21:00 +14°C° 0 mm 6 mps 737 mmHg 66%
    22:00 +14°C° 0 mm 6 mps 737 mmHg 69%
    23:00 +13°C° 0 mm 6 mps 737 mmHg 71%

    27 August, Sunday

    Time Temperature Precipitation Wind Pressure Humidity
    00:00 +13°C° 0 mm 6 mps 736 mmHg 75%
    01:00 +11°C° 0 mm 6 mps 736 mmHg 79%
    02:00 +10°C° 0 mm 6 mps 736 mmHg 83%
    03:00 +10°C° 0 mm 6 mps 736 mmHg 86%
    04:00 +10°C° 0 mm 6 mps 736 mmHg 88%
    05:00 +9°C° 0 mm 6 mps 736 mmHg 91%
    06:00 +10°C° 0 mm 6 mps 736 mmHg 86%
    07:00 +10°C° 0 mm 7 mps 736 mmHg 81%
    08:00 +11°C° 0 mm 7 mps 737 mmHg 76%
    09:00 +14°C° 0 mm 7 mps 737 mmHg 68%
    10:00 +15°C° 0 mm 7 mps 736 mmHg 60%
    11:00 +17°C° 0 mm 7 mps 736 mmHg 52%
    12:00 +19°C° 0 mm 6 mps 735 mmHg 49%
    13:00 +20°C° 0 mm 6 mps 734 mmHg 46%
    14:00 +21°C° 0 mm 5 mps 734 mmHg 42%
    15:00 +21°C° 0 mm 5 mps 734 mmHg 43%
    16:00 +20°C° 0 mm 5 mps 734 mmHg 44%
    17:00 +20°C° 0 mm 5 mps 734 mmHg 45%
    18:00 +19°C° 0 mm 5 mps 734 mmHg 47%
    19:00 +17°C° 0 mm 5 mps 734 mmHg 50%
    20:00 +17°C° 0 mm 5 mps 735 mmHg 53%
    21:00 +16°C° 0 mm 5 mps 734 mmHg 54%
    22:00 +16°C° 0 mm 6 mps 734 mmHg 56%
    23:00 +15°C° 0 mm 6 mps 734 mmHg 58%

    28 August, Monday

    Time Temperature Precipitation Wind Pressure Humidity
    00:00 +15°C° 0 mm 6 mps 733 mmHg 62%
    01:00 +14°C° 0 mm 7 mps 733 mmHg 67%
    02:00 +12°C° 0 mm 7 mps 733 mmHg 71%
    03:00 +12°C° 0.3 mm 7 mps 733 mmHg 75%
    04:00 +13°C° 0.3 mm 6 mps 733 mmHg 79%
    05:00 +11°C° 0.3 mm 6 mps 733 mmHg 83%
    06:00 +11°C° 0.7 mm 6 mps 734 mmHg 84%
    07:00 +13°C° 0.7 mm 5 mps 734 mmHg 84%
    08:00 +13°C° 0.7 mm 5 mps 734 mmHg 85%
    09:00 +13°C° 0.3 mm 5 mps 734 mmHg 83%
    10:00 +14°C° 0.3 mm 5 mps 734 mmHg 81%
    11:00 +14°C° 0.3 mm 5 mps 733 mmHg 79%
    12:00 +15°C° 0 mm 4 mps 733 mmHg 74%
    13:00 +17°C° 0 mm 4 mps 732 mmHg 69%
    14:00 +19°C° 0 mm 4 mps 732 mmHg 63%
    15:00 +18°C° 0 mm 4 mps 732 mmHg 64%
    16:00 +18°C° 0 mm 4 mps 732 mmHg 65%
    17:00 +18°C° 0 mm 4 mps 732 mmHg 66%
    18:00 +17°C° 0 mm 4 mps 732 mmHg 69%
    19:00 +15°C° 0 mm 4 mps 732 mmHg 73%
    20:00 +15°C° 0 mm 4 mps 733 mmHg 76%
    21:00 +14°C° 0 mm 4 mps 733 mmHg 78%
    22:00 +14°C° 0 mm 4 mps 733 mmHg 79%
    23:00 +14°C° 0 mm 4 mps 732 mmHg 81%
    Show more